[[{"header":{"parameterUnit":"m.s-1","parameterCategory":1,"la1":30.2991,"la2":30.254,"lo1":-89.0895,"lo2":-89.0444,"dy":0.0017,"dx":0.0017,"nx":28,"ny":28,"refTime":"2025-06-19T09:00:00:Z","depth":0,"parameterNumber":2,"parameterNumberName":"U-component_of_WINDS"},"data":[0,0,0,0,0,0,0,0,0,0,0,0,0,0,0,0,0,0,0,0,0,0,0,0,0,0,0,0,0,0,0,0,0,0,0,0,0,0,0,0,0,0,0,0,0,0,0,0,0,0,0,0,0,0,0,0,0,0,5.0224,5.0225,0,5.0366,5.0368,5.0369,5.0292,5.0288,5.0284,5.028,5.0429,5.0436,5.0443,0,0,0,0,0,0,0,0,0,0,0,0,0,4.9884,4.9891,5.0224,5.0225,5.0227,5.0366,5.0368,5.037,5.0293,5.0288,5.0283,5.0279,5.0426,5.0435,5.0444,0,0,0,0,0,0,0,0,0,0,0,0,0,5.003,4.9893,5.0223,5.0205,5.0205,5.0365,5.0368,5.037,5.0293,5.0288,5.0282,5.0276,5.0423,5.0434,5.0445,5.0632,0,0,5.048,5.0485,0,0,0,0,0,0,0,0,5.0022,5.0042,5.0206,5.0207,5.0207,5.0305,5.0302,5.0458,5.0295,5.026,5.028,5.0273,5.0392,5.0406,5.0445,5.0639,5.0646,5.0481,5.0488,5.0493,5.0496,0,0,0,0,0,0,0,5.0012,5.0036,5.028,5.0209,5.0209,5.019,5.0204,5.0332,5.0357,5.0263,5.0257,5.0275,5.0391,5.0435,5.0448,5.0648,5.0481,5.0491,5.0498,5.0502,5.0997,5.1003,0,0,0,0,0,0,5.0003,5.0028,5.0276,5.0284,5.0098,5.0201,5.0217,5.028,5.0356,5.0362,5.028,5.0271,5.0418,5.0435,5.0453,5.0673,5.0493,5.0503,5.051,5.0991,5.0998,5.1005,0,0,0,0,0,0,4.9996,5.0026,5.027,5.0155,5.0184,5.0213,5.0284,5.0285,5.0328,5.0369,5.0373,5.0319,5.0414,5.0437,5.0587,5.0677,5.0508,5.0519,5.0983,5.0993,5.1002,5.1117,0,0,0,0,0,0,4.9986,5.0024,5.0095,5.0157,5.0191,5.0402,5.029,5.0292,5.0348,5.0338,5.0407,5.0413,5.0411,5.057,5.0598,5.069,5.0528,5.0975,5.0988,5.0999,5.1106,5.113,5.115,0,0,0,0,0,4.9974,5.0124,5.0099,5.013,5.0281,5.0407,5.0426,5.0421,5.0356,5.0427,5.0452,5.0411,5.0664,5.0586,5.0617,5.0714,5.0969,5.0984,5.0998,5.1096,5.1125,5.115,0,0,0,0,0,0,5.0073,5.0132,5.0105,5.0279,5.0338,5.0394,5.0484,5.0453,5.0533,5.052,5.0511,5.0528,5.0682,5.0714,5.0627,5.0896,5.0806,5.0827,5.087,5.0898,5.092,5.0908,5.0537,0,0,0,0,0,5.0115,5.0213,5.0258,5.0407,5.0438,5.0456,5.0511,5.0501,5.0563,5.0588,5.0625,5.0687,5.0779,5.0841,5.0929,5.111,5.1122,5.1192,5.1214,5.1232,5.125,5.1343,5.1374,5.1052,5.1052,5.1052,0,0,5.0203,5.0247,5.0309,5.0428,5.0473,5.0573,5.0478,5.0589,5.0663,5.0606,5.0747,5.0777,5.0845,5.101,5.1085,5.1041,5.1341,5.125,5.1264,5.1272,5.1361,5.1392,5.1419,5.1062,5.106,5.1058,0,0,5.0413,5.0458,5.0584,5.063,5.0699,5.0709,5.074,5.08,5.0816,5.0958,5.0916,5.1004,5.1166,5.1214,5.126,5.1486,5.1449,5.1515,5.1631,5.1722,5.1748,5.177,5.1847,5.1875,5.1533,5.1533,5.1533,0,5.0513,5.0662,5.0653,5.0766,5.0818,5.0769,5.0896,5.0942,5.1037,5.1074,5.1023,5.1221,5.1265,5.1438,5.1492,5.1533,5.1565,5.1506,5.1745,5.1767,5.1788,5.1861,5.189,5.1541,5.154,5.1539,5.1538,0,5.078,5.0884,5.0978,5.1068,5.1131,5.1251,5.1259,5.1324,5.1309,5.1324,5.1468,5.1517,5.1612,5.1654,5.1641,5.1825,5.1795,5.1745,5.1654,5.1826,5.1894,5.1922,5.1551,5.1548,5.1546,5.1544,0,0,5.1058,5.1138,5.1173,5.1211,5.1282,5.1362,5.1479,5.157,5.1624,5.1691,5.1786,5.1923,5.1876,5.1928,5.192,5.2001,5.2171,5.1941,5.1942,5.1979,5.2372,5.2407,5.2439,5.2148,5.2153,5.2158,5.2365,0,5.1269,5.1472,5.1465,5.1654,5.1747,5.1701,5.1802,5.1856,5.1873,5.1955,5.1974,5.2069,5.2002,5.2033,5.2111,5.2134,5.2249,5.2119,5.2235,5.2239,5.2216,5.2476,5.2514,5.2707,5.2392,5.2397,5.24,0,5.1544,5.1616,5.1813,5.1866,5.1906,5.1997,5.2077,5.2157,5.2217,5.2223,5.228,5.2258,5.2375,5.2282,5.244,5.2352,5.2399,5.2417,5.2424,5.2433,5.2328,5.2488,5.2769,5.2797,5.2443,5.2439,5.2436,0,5.1721,5.1869,5.2004,5.2039,5.2106,5.217,5.2201,5.2254,5.2308,5.238,5.2414,5.2499,5.2545,5.2611,5.2612,5.2545,5.2771,5.2679,5.2778,5.2778,5.2826,5.2822,5.3115,5.2862,5.2861,5.2861,5.286,0,5.1957,5.2078,5.2084,5.2168,5.2301,5.2293,5.2425,5.245,5.2497,5.2583,5.255,5.2631,5.2629,5.2712,5.2714,5.2842,5.2865,5.2872,5.287,5.2873,5.2872,5.2902,5.2887,5.2869,5.2867,5.2865,5.2864,0,5.2177,5.2186,5.233,5.238,5.2396,5.2492,5.2534,5.2612,5.2626,5.2735,5.276,5.2781,5.2876,5.2884,5.2996,5.2996,5.3151,5.3137,5.3131,5.3127,5.3223,5.3213,5.3543,5.3585,5.3308,5.331,5.3313,0,5.2325,5.2417,5.2476,5.253,5.2564,5.2653,5.2707,5.2702,5.2759,5.2831,5.2901,5.2992,5.3065,5.3219,5.3243,5.3327,5.3312,5.3423,5.3325,5.3323,5.3309,5.3303,5.331,5.3441,5.3444,5.3446,5.3448,0,5.2585,5.2585,5.2664,5.2744,5.2808,5.2872,5.2931,5.2977,5.2979,5.3045,5.3141,5.3197,5.3308,5.3398,5.348,5.3511,5.3479,5.3479,5.3505,5.3508,5.3498,5.3501,5.3178,5.3471,5.3469,5.3467,5.3466,5.3465,5.2772,5.2849,5.2901,5.299,5.3033,5.3088,5.3162,5.3184,5.3263,5.3352,5.3345,5.345,5.3503,5.3609,5.3646,5.3727,5.369,5.373,5.3739,5.3748,5.3756,5.3488,5.3743,5.3742,5.3742,5.3741,5.3741,0,5.3027,5.3058,5.3139,5.322,5.3289,5.3253,5.3315,5.3375,5.3467,5.352,5.3591,5.3699,5.3785,5.3816,5.39,5.3959,5.3946,5.3981,5.3975,5.3981,5.3787,5.3753,5.3989,5.3989,5.3989,5.3989,5.3989,5.3989,5.3168,5.3295,5.3301,5.3449,5.3479,5.358,5.3618,5.3668,5.3709,5.3831,5.3901,5.3921,5.3964,5.405,5.4126,5.4133,5.4164,5.4204,5.4204,5.4021,5.3996,5.3972,5.394,5.4212,5.4212,5.4392,5.4393,5.4395]},{"header":{"parameterUnit":"m.s-1","parameterCategory":1,"la1":30.2991,"la2":30.254,"lo1":-89.0895,"lo2":-89.0444,"dy":0.0017,"dx":0.0017,"nx":28,"ny":28,"refTime":"2025-06-19T09:00:00:Z","depth":0,"parameterNumber":3,"parameterNumberName":"V-component_of_WINDS"},"data":[0,0,0,0,0,0,0,0,0,0,0,0,0,0,0,0,0,0,0,0,0,0,0,0,0,0,0,0,0,0,0,0,0,0,0,0,0,0,0,0,0,0,0,0,0,0,0,0,0,0,0,0,0,0,0,0,0,0,1.7029,1.703,0,1.7093,1.7094,1.7094,1.7085,1.7084,1.7083,1.7082,1.7145,1.7148,1.7151,0,0,0,0,0,0,0,0,0,0,0,0,0,1.6895,1.6898,1.7029,1.703,1.7031,1.7093,1.7094,1.7095,1.7085,1.7084,1.7083,1.7081,1.7144,1.7148,1.7151,0,0,0,0,0,0,0,0,0,0,0,0,0,1.6956,1.6899,1.7029,1.7033,1.7034,1.7093,1.7094,1.7095,1.7085,1.7084,1.7082,1.7081,1.7143,1.7147,1.7151,1.7208,0,0,1.7164,1.7165,0,0,0,0,0,0,0,0,1.6952,1.6961,1.7032,1.7033,1.7034,1.7079,1.707,1.7133,1.7086,1.7066,1.7082,1.708,1.7124,1.713,1.7145,1.7211,1.7214,1.7164,1.7166,1.7168,1.7169,0,0,0,0,0,0,0,1.6948,1.6958,1.7054,1.7033,1.7035,1.7031,1.7038,1.7082,1.7103,1.7068,1.7067,1.7075,1.7125,1.7142,1.7147,1.7215,1.7164,1.7167,1.717,1.7171,1.7328,1.733,0,0,0,0,0,0,1.6943,1.6954,1.7052,1.7056,1.6989,1.7035,1.7042,1.7067,1.7103,1.7107,1.7076,1.7074,1.7135,1.7142,1.7149,1.7217,1.7168,1.7172,1.7174,1.7326,1.7328,1.733,0,0,0,0,0,0,1.694,1.6952,1.705,1.7005,1.7017,1.7039,1.7066,1.7069,1.7085,1.7109,1.7113,1.709,1.7134,1.7143,1.7193,1.7219,1.7174,1.7177,1.7324,1.7327,1.7329,1.7354,0,0,0,0,0,0,1.6937,1.6951,1.6974,1.7006,1.702,1.7094,1.7068,1.7071,1.7093,1.7091,1.7123,1.7127,1.7134,1.7187,1.7197,1.7224,1.718,1.7322,1.7325,1.7329,1.7351,1.7357,1.7362,0,0,0,0,0,1.6932,1.6978,1.6975,1.6987,1.7049,1.7095,1.7103,1.7111,1.7095,1.7117,1.7132,1.7126,1.7214,1.7192,1.7204,1.7232,1.732,1.7325,1.7328,1.7348,1.7356,1.7362,0,0,0,0,0,0,1.6949,1.6983,1.6979,1.7038,1.7064,1.7094,1.7122,1.7119,1.715,1.7147,1.7155,1.7162,1.7212,1.7227,1.7202,1.7287,1.7265,1.7271,1.7276,1.7284,1.7289,1.7284,1.7184,0,0,0,0,0,1.6959,1.6995,1.7022,1.7071,1.7084,1.7101,1.7122,1.7125,1.7152,1.7163,1.7182,1.7208,1.7241,1.7263,1.7295,1.7353,1.7358,1.7377,1.7383,1.7387,1.7393,1.7422,1.743,1.7343,1.7343,1.7343,0,0,1.6981,1.7004,1.7026,1.7075,1.7095,1.7131,1.711,1.715,1.7176,1.7169,1.7217,1.7231,1.726,1.7314,1.7338,1.7328,1.7418,1.7392,1.7396,1.7399,1.7427,1.7435,1.7442,1.7346,1.7345,1.7345,0,0,1.7039,1.7061,1.7103,1.7124,1.7155,1.7166,1.7176,1.7206,1.7216,1.7264,1.7259,1.729,1.7348,1.7368,1.7386,1.745,1.7444,1.746,1.749,1.7518,1.7525,1.7531,1.7553,1.756,1.7465,1.7465,1.7465,0,1.7063,1.7117,1.7125,1.7164,1.7185,1.7181,1.7222,1.7242,1.7282,1.7296,1.7284,1.7355,1.7374,1.7431,1.7447,1.7462,1.7472,1.7457,1.7524,1.753,1.7535,1.7556,1.7564,1.7467,1.7467,1.7467,1.7466,0,1.7144,1.7181,1.7211,1.725,1.7274,1.7315,1.7327,1.735,1.7351,1.7363,1.7411,1.7434,1.747,1.7484,1.7485,1.754,1.7533,1.7522,1.7499,1.7545,1.7565,1.7573,1.7469,1.7469,1.7468,1.7468,0,0,1.7215,1.7257,1.7268,1.7285,1.7318,1.7347,1.7386,1.7421,1.744,1.7468,1.75,1.7548,1.7538,1.7558,1.7561,1.7587,1.7634,1.7572,1.7573,1.7582,1.7694,1.7701,1.771,1.763,1.7632,1.7633,1.7691,0,1.7276,1.7346,1.7354,1.7416,1.745,1.7445,1.7479,1.7502,1.7513,1.7542,1.7554,1.7588,1.7573,1.7585,1.7609,1.7623,1.7656,1.7619,1.7659,1.766,1.7651,1.7721,1.7729,1.7783,1.7699,1.77,1.7701,0,1.7357,1.7386,1.7452,1.7479,1.7493,1.7524,1.7556,1.7584,1.761,1.7616,1.7638,1.7638,1.7676,1.7652,1.7705,1.7679,1.7695,1.7704,1.7706,1.771,1.7683,1.7725,1.7801,1.7808,1.7713,1.7712,1.7711,0,1.7401,1.7457,1.7503,1.7518,1.7551,1.7572,1.7586,1.7611,1.7631,1.7658,1.7671,1.7703,1.772,1.7744,1.7751,1.7733,1.7803,1.778,1.7808,1.7807,1.7822,1.7821,1.7901,1.7834,1.7834,1.7834,1.7834,0,1.7468,1.7508,1.7523,1.7552,1.7595,1.7603,1.7646,1.7659,1.768,1.771,1.7707,1.7735,1.7743,1.7772,1.7778,1.7819,1.7827,1.7832,1.7833,1.7832,1.7832,1.7843,1.7839,1.7836,1.7836,1.7835,1.7835,0,1.7525,1.7537,1.7587,1.7613,1.7621,1.7652,1.7674,1.7701,1.7711,1.7748,1.7757,1.7773,1.7806,1.7816,1.7857,1.786,1.7908,1.7907,1.79,1.79,1.7927,1.7924,1.8016,1.8028,1.7954,1.7955,1.7956,0,1.7566,1.7597,1.7627,1.7647,1.7662,1.7694,1.7715,1.7722,1.7743,1.7774,1.7796,1.7829,1.7856,1.7909,1.7923,1.7953,1.7951,1.7981,1.7956,1.7953,1.795,1.7948,1.7951,1.7986,1.7987,1.7988,1.7988,0,1.7638,1.7642,1.7672,1.7704,1.7729,1.7754,1.7778,1.7794,1.7805,1.7828,1.7863,1.7883,1.7924,1.7956,1.7986,1.8,1.7995,1.7996,1.8004,1.8003,1.7997,1.7999,1.7912,1.7994,1.7993,1.7993,1.7993,1.7992,1.7688,1.7714,1.7739,1.7772,1.7791,1.7813,1.7839,1.7852,1.7881,1.7915,1.7917,1.7954,1.7976,1.8016,1.8031,1.8059,1.805,1.8062,1.8065,1.8067,1.8069,1.7993,1.8065,1.8065,1.8064,1.8064,1.8064,0,1.7759,1.7774,1.7805,1.7838,1.7864,1.7858,1.7884,1.7905,1.7937,1.7959,1.7985,1.8024,1.8054,1.8071,1.8101,1.812,1.8118,1.8127,1.8125,1.8128,1.8076,1.8066,1.8128,1.8128,1.8128,1.8128,1.8128,1.8128,1.7799,1.7842,1.7849,1.7901,1.7916,1.7953,1.7968,1.7987,1.8005,1.8048,1.8073,1.8084,1.8103,1.8134,1.8161,1.8165,1.8176,1.8186,1.8188,1.8139,1.8132,1.8126,1.8116,1.8188,1.8188,1.8238,1.8239,1.8239]}]]